Wind_Speed
25 24 31 37 39 38 29 24 20 17 15 13 11 9 8 7 6 5 4 2 1 4 7 9 12 15 19 21 24 26 28 32 32 34 38 42 44 48 51 53 57 60 63 65 68
23 22 27 31 38 38 33 27 21 18 16 15 12 10 9 8 7 4 2 2 1 1 2 3 6 9 13 17 21 26 28 32 35 37 41 45 47 50 53 55 58 61 61 62 65
22 21 21 24 35 35 36 29 24 17 16 15 12 11 10 5 3 3 0 1 0 2 5 8 12 15 19 23 26 29 32 35 39 41 42 43 44 46 49 49 50 52 54 57 61
26 24 17 20 31 35 35 32 25 19 15 13 12 10 8 5 5 4 4 4 6 9 12 15 18 21 25 29 31 34 35 36 36 38 40 40 43 45 46 48 49 51 54 56 60
26 25 20 17 22 33 33 34 26 21 15 13 11 9 8 7 8 7 8 9 11 14 16 20 24 26 30 32 33 32 33 35 35 36 39 40 41 43 44 45 47 49 52 55 60
25 26 23 17 17 28 33 31 30 22 17 12 11 11 11 12 12 11 12 13 16 18 21 23 26 28 30 31 32 31 30 32 34 36 37 39 40 42 44 43 44 47 51 57 65
31 28 26 23 13 22 28 28 29 24 19 14 13 13 14 15 15 16 16 18 19 21 23 24 26 27 29 28 27 29 29 30 32 33 38 42 40 43 40 41 43 48 55 62 71
31 30 29 26 15 20 25 25 28 28 20 18 15 14 14 15 17 18 19 20 22 22 23 24 26 27 25 25 24 25 29 31 35 35 37 39 38 38 38 41 46 52 61 69 77
37 36 33 27 25 20 23 22 27 27 24 18 18 15 15 17 18 19 20 21 23 24 25 25 24 23 21 20 21 25 32 36 37 36 36 36 36 35 38 43 50 57 66 75 85
44 40 33 29 30 24 22 22 26 25 26 20 19 18 17 18 20 21 22 23 24 24 22 21 19 17 18 21 25 28 30 33 33 35 36 36 34 34 40 47 54 63 73 83 89
45 37 34 32 32 32 24 23 21 27 26 26 19 20 20 18 19 21 22 22 22 21 18 16 17 19 21 23 26 30 34 35 33 35 39 34 32 35 42 50 61 70 79 86 91
48 45 41 34 34 35 30 23 20 26 25 26 24 20 21 19 19 19 19 19 19 17 15 16 17 20 23 26 30 33 37 38 37 37 36 32 31 39 46 55 63 73 82 86 82
51 50 46 41 39 38 33 26 23 22 25 25 27 22 21 21 20 19 18 19 16 16 16 16 18 21 25 28 33 38 42 42 44 41 33 32 36 44 51 57 65 75 83 83 85
65 54 53 46 43 39 36 32 27 23 24 25 25 23 21 21 21 19 18 19 17 17 16 17 19 22 26 31 35 41 42 44 45 37 30 31 37 46 53 61 68 76 84 85 81
53 64 54 51 45 40 39 34 24 23 27 27 24 24 22 20 20 19 20 19 19 16 16 18 21 24 28 33 37 41 43 46 44 35 30 31 39 47 55 63 69 76 83 86 86
49 57 58 53 48 43 41 38 30 28 28 25 23 24 25 20 20 20 20 20 18 15 16 19 22 25 29 34 37 40 44 47 43 33 29 33 40 50 56 63 69 78 85 88 86
41 47 65 56 54 49 42 40 35 28 30 23 25 25 26 21 20 20 21 20 16 15 17 19 22 26 30 34 37 39 44 46 40 31 28 35 44 51 59 63 69 78 86 87 88
36 46 60 64 55 51 45 42 42 33 29 25 22 27 29 23 20 20 20 19 16 17 18 19 22 26 30 34 37 39 42 44 37 29 31 38 46 55 60 65 69 77 83 85 88
35 43 54 67 64 56 50 41 46 38 33 26 24 28 26 26 20 21 20 18 17 18 19 20 22 26 30 33 36 40 42 44 38 31 31 37 46 51 58 63 65 72 82 88 91
39 42 52 63 69 60 50 46 47 45 39 29 26 25 26 27 21 21 20 19 18 19 19 21 22 26 29 32 36 40 41 43 34 29 32 36 45 54 60 64 65 71 79 86 89
39 42 49 54 69 68 53 52 51 46 46 34 30 25 28 27 24 22 21 19 18 19 21 21 22 26 29 32 36 40 41 42 33 28 31 36 45 53 61 65 65 69 78 86 87
42 43 49 54 60 69 62 59 53 49 53 43 34 29 31 28 27 23 22 21 19 20 21 22 23 26 28 32 35 39 41 41 32 27 32 38 44 51 57 64 64 66 79 84 86
45 44 48 53 57 69 72 63 55 54 56 49 40 37 31 33 30 25 24 23 22 21 22 23 24 26 29 31 34 37 39 39 33 26 30 38 43 49 56 61 61 66 72 84 86
47 46 47 54 58 65 76 67 60 61 60 51 48 41 35 33 31 27 25 25 24 22 22 22 24 26 28 30 33 34 37 38 31 27 30 38 43 47 53 59 63 68 71 80 83
48 46 47 55 57 63 77 75 65 65 63 54 53 48 38 36 33 31 27 27 25 24 23 23 23 25 27 28 31 32 35 37 31 27 27 34 40 43 49 59 64 67 69 76 83
48 48 47 56 62 63 72 77 72 67 66 57 60 54 37 34 33 35 30 27 26 25 24 23 24 24 25 26 28 29 33 36 34 26 25 31 36 40 48 53 59 66 69 72 73
49 51 50 56 64 60 67 82 80 74 69 60 63 52 44 38 36 38 33 27 27 27 25 25 25 25 23 25 26 25 31 35 36 29 24 28 35 41 47 51 55 62 67 71 76
Wind_Direction
340 353 356 351 358 0 356 355 351 343 345 344 342 339 326 322 338 357 7 8 252 239 247 257 262 266 271 274 276 276 276 276 277 284 291 292 294 294 294 294 293 292 291 289 286
326 342 348 352 356 358 358 355 352 344 340 336 331 328 330 344 348 342 357 345 330 252 290 303 307 294 288 289 287 286 288 288 289 290 293 295 296 297 296 295 293 293 292 291 290
311 329 340 351 347 355 356 353 351 347 339 335 330 327 326 326 334 293 130 116 162 282 292 305 311 307 300 301 300 299 297 296 296 297 298 300 300 300 301 300 299 298 296 295 294
302 309 326 345 344 345 351 352 347 343 345 338 331 328 324 301 272 266 276 284 295 300 304 306 305 302 299 301 302 303 304 305 306 305 305 305 304 304 302 303 302 300 300 298 295
295 297 305 335 340 340 347 347 346 341 338 334 323 313 305 286 287 281 284 292 303 306 307 303 301 303 305 307 308 310 312 311 312 310 309 309 308 307 306 305 303 302 301 299 297
283 292 292 315 331 332 340 344 347 338 333 321 306 300 296 294 292 298 302 304 304 305 304 305 305 307 310 313 314 315 318 316 316 315 315 314 313 310 310 309 308 308 305 301 297
270 280 282 295 304 322 336 341 342 343 333 321 301 297 300 301 301 302 302 302 303 304 306 305 307 311 313 315 318 319 320 320 319 323 320 317 316 314 315 314 313 307 304 299 298
262 269 278 280 284 308 328 329 338 340 331 323 310 303 299 298 300 301 301 303 304 306 307 310 313 314 317 321 325 328 326 328 334 331 330 325 319 321 322 317 312 309 305 304 306
266 263 269 270 277 295 314 321 326 331 334 321 316 303 297 297 298 299 301 304 306 307 311 315 318 320 327 334 332 335 343 340 340 339 331 325 327 327 322 318 315 311 310 312 312
261 258 263 269 268 280 292 312 313 328 331 326 314 310 304 298 298 300 304 308 311 309 317 320 324 332 334 339 343 342 340 339 344 341 333 333 333 331 323 323 317 316 317 316 317
253 253 258 265 273 271 274 299 299 314 325 330 315 309 307 307 307 309 310 311 309 316 319 325 331 333 342 342 342 344 344 346 346 346 340 338 336 330 329 323 322 322 320 318 324
250 248 251 259 266 264 265 277 286 304 319 323 324 306 306 309 308 311 314 311 310 313 318 326 332 335 341 342 343 343 346 351 350 349 345 342 336 333 329 329 326 323 319 321 332
245 246 248 254 256 261 254 263 279 297 312 316 323 310 303 305 310 307 309 308 310 313 314 324 328 336 343 340 341 345 346 352 353 350 350 342 340 341 339 333 329 324 321 328 336
240 242 249 251 253 257 253 259 269 283 309 306 315 319 301 302 306 304 303 305 309 309 311 318 326 332 335 335 340 345 347 351 353 352 349 350 348 343 338 335 330 327 326 335 346
243 237 243 245 245 247 251 248 252 269 296 297 309 315 308 299 301 305 297 301 307 299 309 317 324 329 331 335 341 344 347 351 352 353 352 353 349 343 338 332 333 330 333 347 353
247 239 236 239 243 244 247 244 244 260 276 282 300 309 312 295 298 301 299 301 301 295 309 315 323 328 332 335 340 345 347 350 353 355 353 350 349 341 336 338 337 336 339 351 353
251 245 231 235 239 241 243 241 244 246 263 269 289 299 307 296 293 296 300 302 292 293 309 316 321 327 331 337 340 347 349 350 352 349 351 351 348 345 346 347 344 343 349 353 356
256 246 232 229 236 237 237 240 243 244 250 260 278 286 300 298 287 290 295 298 289 296 306 313 322 328 332 337 342 348 349 351 351 349 349 356 356 353 349 349 351 355 351 355 359
267 247 234 226 230 236 235 239 242 242 243 256 265 285 286 295 282 283 289 290 291 294 304 314 323 330 334 338 342 348 351 353 351 349 357 357 359 351 351 355 358 358 355 355 359
277 251 238 231 226 230 234 235 238 245 241 250 261 277 283 286 281 278 282 283 290 289 297 309 320 328 334 338 342 348 352 354 353 349 360 1 0 356 358 359 1 357 359 358 0
277 262 243 234 226 226 229 234 234 237 244 243 252 268 275 282 286 273 278 278 287 286 293 304 316 325 332 337 343 348 352 354 354 354 5 6 1 1 360 3 7 5 7 7 5
278 266 245 237 228 224 226 231 232 234 243 240 245 254 266 279 282 270 272 275 281 283 289 300 312 321 329 336 343 347 352 355 355 359 6 12 4 6 2 9 12 10 9 12 8
282 267 252 237 231 222 223 225 227 234 240 241 241 252 260 270 272 276 267 271 276 279 284 295 306 318 327 335 342 346 351 356 353 2 6 14 9 7 7 13 14 12 11 12 12
280 265 254 237 230 224 221 220 224 231 234 240 242 246 250 261 268 271 265 266 271 275 278 288 300 313 324 333 338 344 349 355 353 2 9 17 15 13 12 16 19 17 16 14 18
281 262 254 239 229 226 221 221 221 227 231 234 240 241 243 253 264 267 267 263 267 273 273 282 293 306 318 329 334 342 348 353 358 2 10 14 17 14 15 18 21 20 22 21 19
274 261 254 239 232 226 222 221 219 225 228 224 238 238 241 247 255 262 268 263 263 269 270 276 287 299 311 324 331 342 348 351 0 2 9 9 15 14 14 17 19 22 23 24 24
266 265 252 242 234 228 224 219 220 220 226 222 237 239 239 240 253 258 261 261 260 264 269 271 280 293 306 320 327 341 347 350 354 3 9 10 10 17 16 16 20 22 26 27 26
Height
10899 10895 10892 10888 10884 10879 10875 10871 10868 10866 10864 10863 10862 10860 10859 10858 10858 10857 10857 10857 10857 10858 10858 10859 10859 10859 10858 10857 10855 10853 10851 10848 10847 10843 10837 10832 10829 10824 10817 10813 10805 10799 10794 10788 10780
10897 10895 10892 10889 10885 10881 10876 10872 10868 10866 10865 10863 10862 10861 10860 10860 10859 10858 10858 10858 10858 10858 10858 10858 10858 10857 10856 10854 10851 10849 10847 10843 10840 10837 10832 10826 10821 10813 10806 10802 10793 10786 10778 10770 10762
10895 10893 10891 10888 10885 10882 10877 10873 10870 10867 10866 10864 10863 10862 10861 10860 10859 10859 10859 10859 10859 10859 10858 10857 10855 10854 10852 10850 10847 10844 10841 10837 10832 10828 10823 10818 10811 10805 10796 10789 10783 10773 10765 10756 10747
10892 10891 10889 10886 10883 10882 10878 10874 10870 10868 10866 10865 10864 10863 10862 10861 10861 10861 10860 10859 10859 10858 10857 10855 10853 10850 10848 10846 10842 10838 10834 10830 10825 10819 10814 10809 10802 10796 10788 10779 10771 10761 10752 10743 10731
10888 10888 10887 10884 10882 10881 10879 10875 10871 10868 10866 10865 10864 10864 10863 10862 10862 10861 10859 10859 10857 10856 10854 10852 10849 10846 10844 10840 10836 10832 10828 10823 10818 10812 10806 10801 10793 10786 10779 10770 10761 10752 10742 10730 10717
10883 10883 10884 10882 10880 10879 10878 10875 10871 10869 10866 10864 10864 10863 10863 10862 10861 10859 10858 10856 10855 10853 10850 10848 10845 10843 10839 10834 10831 10827 10823 10818 10812 10805 10799 10792 10784 10776 10769 10760 10751 10741 10729 10718 10704
10878 10878 10880 10879 10877 10876 10876 10875 10871 10868 10866 10863 10862 10861 10861 10860 10859 10857 10856 10854 10852 10849 10847 10845 10842 10839 10835 10831 10827 10822 10818 10814 10807 10801 10791 10781 10778 10767 10760 10750 10741 10731 10720 10704 10689
10871 10873 10874 10875 10873 10873 10873 10873 10870 10867 10864 10862 10860 10859 10858 10857 10856 10855 10853 10851 10849 10846 10843 10841 10838 10835 10831 10827 10824 10818 10812 10807 10800 10792 10785 10775 10769 10760 10752 10743 10733 10721 10705 10691 10679
10864 10866 10868 10869 10869 10868 10869 10870 10868 10865 10862 10860 10858 10856 10855 10854 10853 10852 10850 10848 10846 10842 10839 10836 10834 10831 10827 10823 10821 10815 10807 10802 10795 10788 10779 10771 10764 10756 10745 10735 10722 10708 10694 10680 10661
10856 10858 10861 10862 10864 10864 10864 10865 10865 10863 10860 10857 10855 10854 10852 10851 10850 10848 10846 10845 10842 10839 10836 10833 10831 10828 10825 10821 10816 10813 10809 10802 10794 10784 10773 10765 10757 10749 10738 10727 10711 10699 10684 10664 10647
10846 10850 10852 10855 10858 10859 10859 10859 10861 10860 10857 10855 10853 10851 10850 10848 10846 10845 10843 10841 10838 10835 10833 10831 10828 10824 10821 10818 10814 10809 10803 10795 10787 10778 10768 10760 10752 10742 10732 10718 10704 10689 10668 10648 10635
10836 10840 10843 10847 10850 10852 10853 10854 10855 10855 10854 10852 10850 10848 10847 10845 10843 10842 10840 10838 10835 10833 10830 10828 10825 10822 10818 10814 10810 10804 10797 10789 10781 10773 10764 10755 10746 10737 10725 10712 10696 10676 10656 10639 10626
10824 10829 10834 10838 10842 10845 10847 10848 10850 10850 10850 10849 10847 10844 10843 10842 10840 10839 10837 10834 10833 10830 10827 10825 10822 10819 10815 10810 10805 10798 10791 10783 10775 10766 10758 10749 10741 10731 10720 10705 10689 10671 10647 10635 10615
10810 10817 10823 10829 10833 10836 10841 10843 10844 10846 10845 10845 10843 10841 10840 10839 10837 10835 10833 10831 10830 10828 10825 10822 10819 10816 10812 10808 10802 10794 10787 10779 10771 10763 10755 10746 10737 10727 10715 10701 10683 10662 10637 10626 10603
10795 10804 10811 10817 10823 10827 10832 10836 10838 10839 10840 10841 10839 10837 10836 10835 10834 10832 10830 10828 10827 10824 10823 10820 10817 10813 10810 10804 10798 10791 10783 10775 10766 10758 10751 10745 10736 10724 10711 10695 10678 10652 10632 10613 10590
10785 10790 10799 10806 10811 10817 10824 10828 10831 10832 10834 10834 10834 10833 10832 10831 10830 10829 10827 10825 10823 10821 10820 10818 10814 10811 10806 10801 10795 10788 10779 10770 10761 10754 10749 10742 10732 10720 10707 10689 10668 10645 10621 10604 10584
10774 10778 10786 10794 10799 10808 10815 10821 10824 10823 10826 10828 10828 10828 10828 10827 10826 10825 10823 10822 10820 10818 10817 10815 10812 10808 10803 10799 10793 10786 10777 10767 10759 10752 10747 10739 10727 10715 10698 10682 10662 10636 10618 10600 10577
10764 10766 10771 10781 10789 10797 10805 10812 10814 10817 10818 10821 10822 10823 10823 10822 10821 10821 10820 10819 10816 10815 10814 10813 10810 10806 10801 10796 10789 10783 10775 10767 10758 10752 10743 10735 10722 10709 10695 10680 10661 10637 10618 10597 10575
10755 10755 10759 10766 10776 10786 10795 10803 10803 10810 10810 10814 10815 10817 10818 10817 10817 10816 10816 10815 10814 10812 10810 10809 10806 10803 10799 10794 10788 10781 10773 10764 10754 10748 10742 10733 10721 10710 10696 10680 10662 10643 10618 10594 10574
10744 10744 10747 10752 10763 10775 10785 10791 10795 10801 10801 10807 10808 10810 10812 10812 10811 10811 10811 10811 10810 10809 10807 10806 10804 10801 10797 10791 10785 10778 10771 10762 10754 10747 10740 10733 10720 10708 10694 10678 10663 10644 10621 10598 10576
10733 10733 10733 10741 10750 10763 10775 10776 10781 10791 10793 10798 10800 10803 10805 10806 10806 10806 10807 10806 10806 10805 10804 10802 10801 10798 10794 10789 10783 10775 10768 10760 10753 10746 10740 10730 10720 10706 10692 10679 10664 10645 10624 10601 10579
10721 10720 10722 10729 10737 10750 10759 10761 10773 10779 10781 10789 10792 10795 10798 10801 10801 10800 10801 10801 10801 10800 10800 10798 10797 10795 10791 10786 10780 10773 10766 10759 10752 10745 10738 10729 10719 10707 10694 10681 10664 10648 10627 10606 10585
10708 10707 10710 10714 10725 10734 10739 10748 10762 10766 10770 10777 10783 10786 10790 10794 10794 10795 10795 10795 10796 10795 10795 10794 10793 10791 10788 10784 10778 10772 10764 10758 10750 10744 10738 10730 10720 10708 10695 10683 10668 10652 10634 10612 10589
10693 10694 10697 10700 10708 10716 10725 10735 10747 10750 10756 10768 10773 10777 10780 10785 10788 10789 10789 10790 10790 10790 10790 10790 10789 10787 10784 10781 10776 10770 10763 10756 10749 10743 10737 10729 10720 10710 10699 10687 10672 10657 10639 10617 10595
10680 10681 10682 10688 10691 10699 10708 10721 10731 10737 10744 10757 10762 10765 10771 10777 10780 10781 10783 10783 10785 10785 10785 10785 10785 10784 10781 10778 10773 10768 10762 10755 10747 10741 10736 10729 10722 10714 10704 10690 10675 10663 10646 10623 10603
10665 10667 10667 10671 10673 10683 10693 10708 10716 10722 10730 10743 10746 10753 10765 10769 10771 10773 10776 10777 10779 10779 10780 10780 10780 10779 10778 10775 10771 10765 10760 10754 10747 10740 10735 10728 10723 10714 10703 10692 10680 10665 10649 10632 10615
10651 10653 10654 10656 10660 10669 10679 10690 10698 10705 10715 10731 10735 10748 10756 10758 10761 10765 10769 10771 10772 10773 10774 10775 10774 10774 10774 10771 10768 10763 10758 10751 10745 10739 10732 10727 10721 10713 10704 10694 10682 10668 10655 10639 10624